Regional Weather Roundup
Issued by NWS Glasgow, MT

Home | Current Version | Previous Version | Text Only | Print | Product List | Glossary On
Versions: 1 2 3 4 5 6 7 8 9 10 11 12 13 14 15 16 17 18 19 20 21 22 23 24 25 26 27 28 29 30 31 32 33 34 35 36 37 38 39 40 41 42 43 44 45 46 47 48 49 50
000
ASUS45 KGGW 180915
RWRGGW
HOURLY REGIONAL WEATHER ROUNDUP FOR NORTHEAST MONTANA
NATIONAL WEATHER SERVICE GLASGOW MONTANA
300 AM MDT FRI AUG 18 2017

NOTE: "FAIR" INDICATES FEW OR NO CLOUDS BELOW 12,000 FEET WITH NO
SIGNIFICANT WEATHER AND/OR OBSTRUCTIONS TO VISISBILITY.

NORTHEAST MONTANA


CITY           SKY/WX    TMP DP  RH WIND       PRES   REMARKS
GLASGOW        CLEAR     59  45  59 E10       29.96S
PLENTYWOOD       N/A     57  49  74 SW3         N/A
WOLF POINT     PTCLDY    54  45  71 W6        29.98R
JORDAN           N/A     53  35  50 W3        29.98S
WINNETT          N/A     53  33  46 SW2         N/A
SIDNEY         LGT RAIN  65  55  70 N10       29.96R
GLENDIVE       PTCLDY    57  46  66 NW7       29.97S
MALTA            N/A     55  45  68 SE1         N/A
SCOBEY           N/A     55  46  71 CALM      29.97R

FORT PECK REPORTS


CITY           SKY/WX    TMP DP  RH WIND       PRES   REMARKS
FORT PECK        N/A     65  46  50 NE6         N/A
THE PINES        N/A     64  41  42 NE3         N/A

SOUTHEAST MONTANA


CITY           SKY/WX    TMP DP  RH WIND       PRES   REMARKS
BILLINGS       CLEAR     65  37  35 SW9       30.06R
MILES CITY     CLEAR     59  40  49 NW7       29.98S
BAKER          MOCLDY    59  45  59 W3        30.00R
LIVINGSTON     CLEAR     50  38  63 VRB3      30.14S

CENTRAL MONTANA


CITY           SKY/WX    TMP DP  RH WIND       PRES   REMARKS
HAVRE          CLEAR     55  35  47 S7        29.98R
LEWISTOWN      PTCLDY    52  36  54 SE7       30.08S
GREAT FALLS    CLEAR     59  36  42 SW9       30.05S
CUT BANK       CLEAR     57  40  52 W5        30.03S
HELENA         CLEAR     62  39  42 E3        30.11R
BUTTE          PTCLDY    48  35  60 CALM      30.22S
BOZEMAN        CLEAR     49  40  71 SE6       30.15S

WESTERN MONTANA


CITY           SKY/WX    TMP DP  RH WIND       PRES   REMARKS
MISSOULA       CLEAR     55  42  61 CALM      30.10S
KALISPELL      NOT AVBL

NORTH DAKOTA


CITY           SKY/WX    TMP DP  RH WIND       PRES   REMARKS
WILLISTON      CLOUDY    60  56  86 CALM      29.96R
DICKINSON      CLEAR     54  49  83 W5        29.94R
MINOT          CLOUDY    61  58  90 NW7       29.87F
BISMARCK       CLEAR     64  59  83 NW12      29.87S

SOUTHERN SASKATCHEWAN


CITY           SKY/WX    TMP DP  RH WIND       PRES   REMARKS
REGINA         CLEAR     48  45  87 W3        29.93
ESTEVAN        MOCLDY    52  52 100 SW7       29.93R
SWIFT CURRENT  CLEAR     52  43  71 SW9       29.97S




USA.gov is the U.S. government's official web portal to all federal, state and local government web resources and services.